Weather History for Sevilla, Spain

Change the Weather History Date:

Thursday, September 12, 2013

  Actual Average Record
Temperature  
Mean Temperature 78 °F -  
Max Temperature 91 °F 81 °F 98 °F (2004)
Min Temperature 66 °F 60 °F 60 °F (2001)
Cooling Degree Days 14    
Growing Degree Days 28 (Base 50)    
Moisture  
Dew Point 55 °F    
Average Humidity 46    
Maximum Humidity 78    
Minimum Humidity 24    
Precipitation  
Precipitation 0.00 in - - ()
Sea Level Pressure  
Sea Level Pressure 30.01 in    
Wind  
Wind Speed 3 mph ()    
Max Wind Speed 8 mph    
Max Gust Speed -    
Averages and records for this station are not official NWS values.
T = Trace of Precipitation, MM = Missing Value Source: Averaged Metar Reports

Daily Weather History Graph

Daily Weather History Graph

Search for Another Location

Airport:

Trip Planner

Search our weather history database for the weather conditions in past years. The results will help you decide how hot, cold, wet, or windy it might be!

Date:

Astronomy

Sep. 12, 2013 Rise Set
Actual Time 8:03 AM CEST 8:35 PM CEST
Civil Twilight 7:36 AM CEST 9:02 PM CEST
Nautical Twilight 7:05 AM CEST 9:32 PM CEST
Astronomical Twilight 6:34 AM CEST 10:04 PM CEST
Moon 3:09 PM CEST (9/12) 12:28 AM CEST (9/12)
Length of Visible Light 13h 25m
Length of Day
12h 32m
Waxing Crescent, 47% of the Moon is Illuminated
Sep 12
Waxing Crescent
Sep 12
First Quarter
Sep 19
Full
Sep 27
Last Quarter
Oct 5
New

Hourly Weather History & Observations

Time (CEST) Temp. Heat Index Dew Point Humidity Pressure Visibility Wind Dir Wind Speed Gust Speed Precip Events Conditions
12:00 AM 77.0 °F - 60.8 °F 57% 29.98 in - West 8.1 mph - N/A   Clear
12:30 AM 77.0 °F - 60.8 °F 57% 29.98 in - SW 2.3 mph - N/A   Clear
1:00 AM 75.2 °F - 60.8 °F 61% 29.98 in - Variable 1.2 mph - N/A   Clear
4:30 AM 69.8 °F - 60.8 °F 73% 29.98 in - East 1.2 mph - N/A   Clear
5:00 AM 69.8 °F - 60.8 °F 73% 29.98 in - Calm Calm - N/A   Clear
5:30 AM 68.0 °F - 59.0 °F 73% 29.98 in - North 3.5 mph - N/A   Clear
6:00 AM 68.0 °F - 59.0 °F 73% 29.98 in - Calm Calm - N/A   Clear
6:30 AM 66.2 °F - 59.0 °F 78% 29.98 in - NNE 3.5 mph - N/A   Clear
7:00 AM 66.2 °F - 57.2 °F 73% 29.98 in - NNE 2.3 mph - N/A   Clear
7:30 AM 66.2 °F - 57.2 °F 73% 30.01 in - NNE 4.6 mph - N/A   Clear
8:00 AM 66.2 °F - 57.2 °F 73% 30.01 in - North 3.5 mph - N/A   Clear
8:30 AM 66.2 °F - 59.0 °F 78% 30.01 in - Calm Calm - N/A   Clear
9:00 AM 68.0 °F - 59.0 °F 73% 30.01 in - Calm Calm - N/A   Clear
9:30 AM 69.8 °F - 59.0 °F 68% 30.04 in - Variable 2.3 mph - N/A   Clear
10:00 AM 73.4 °F - 59.0 °F 61% 30.04 in - NNE 3.5 mph - N/A   Clear
10:30 AM 77.0 °F - 60.8 °F 57% 30.04 in - Variable 2.3 mph - N/A   Clear
11:00 AM 80.6 °F 81.5 °F 60.8 °F 51% 30.04 in - Calm Calm - N/A   Clear
11:30 AM 82.4 °F 81.4 °F 53.6 °F 37% 30.04 in - ESE 2.3 mph - N/A   Clear
12:00 PM 84.2 °F - 51.8 °F 33% 30.06 in - Variable 2.3 mph - N/A   Clear
12:30 PM 86.0 °F - 51.8 °F 31% 30.04 in - SSE 5.8 mph - N/A   Clear
1:00 PM 86.0 °F - 50.0 °F 29% 30.04 in - ESE 5.8 mph - N/A   Clear
1:30 PM 87.8 °F - 50.0 °F 27% 30.04 in - SE 6.9 mph - N/A   Clear
2:00 PM 87.8 °F - 51.8 °F 29% 30.04 in - SE 6.9 mph - N/A   Clear
2:30 PM 87.8 °F - 51.8 °F 29% 30.04 in - SE 3.5 mph - N/A   Clear
3:00 PM 89.6 °F - 50.0 °F 26% 30.04 in - South 4.6 mph - N/A   Clear
3:30 PM 89.6 °F - 50.0 °F 26% 30.01 in - Variable 2.3 mph - N/A   Clear
4:00 PM 89.6 °F - 51.8 °F 27% 30.01 in - SW 5.8 mph - N/A   Clear
4:30 PM 91.4 °F - 51.8 °F 26% 30.01 in - SSW 3.5 mph - N/A   Clear
5:00 PM 91.4 °F - 51.8 °F 26% 29.98 in - SSW 3.5 mph - N/A   Clear
5:30 PM 91.4 °F - 50.0 °F 24% 29.98 in - WSW 4.6 mph - N/A   Clear
6:00 PM 91.4 °F - 50.0 °F 24% 29.98 in - SSW 3.5 mph - N/A   Clear
6:30 PM 91.4 °F - 50.0 °F 24% 29.98 in - WSW 3.5 mph - N/A   Clear
7:00 PM 91.4 °F - 51.8 °F 26% 29.98 in - West 4.6 mph - N/A   Clear
7:30 PM 91.4 °F - 50.0 °F 24% 29.98 in - West 3.5 mph - N/A   Clear
8:00 PM 89.6 °F 87.3 °F 53.6 °F 29% 29.98 in - West 4.6 mph - N/A   Clear
8:30 PM 86.0 °F - 51.8 °F 31% 29.98 in - Variable 2.3 mph - N/A   Clear
9:00 PM 84.2 °F 82.8 °F 53.6 °F 35% 29.98 in - Variable 2.3 mph - N/A   Clear
9:30 PM 82.4 °F 81.4 °F 53.6 °F 37% 29.98 in - South 4.6 mph - N/A   Clear
10:00 PM 84.2 °F - 51.8 °F 33% 30.01 in - SSW 4.6 mph - N/A   Clear
10:30 PM 82.4 °F 82.5 °F 59.0 °F 45% 30.01 in - WNW 5.8 mph - N/A   Clear
11:00 PM 80.6 °F 81.5 °F 60.8 °F 51% 30.01 in - WNW 5.8 mph - N/A   Clear
11:30 PM 78.8 °F - 60.8 °F 54% 30.01 in - SW 5.8 mph - N/A   Clear